N91HK KOLV-KHOU

Flight info

Callsign N91HK
Flight time N/A
Altitude 30000
Route AEX WAPPL7
Aircraft CL60/M-SADE3FGHIJ3J4J7P2RWXY/HB1D1

Departure

Time 2026-04-29 23:54
Airport Olive Branch Airport (KOLV)

Arrival

Time N/A
Airport William P. Hobby Airport (KHOU)
Time Latitude Longitude Altitude Speed Heading
2026-04-29 23:39 34.97829 -89.78972 404 ft 0 kts 359°
2026-04-29 23:51 34.97851 -89.78938 405 ft 6 kts 94°
2026-04-29 23:51 34.97874 -89.78888 405 ft 12 kts 69°
2026-04-29 23:51 34.97851 -89.78819 404 ft 11 kts 173°
2026-04-29 23:52 34.97660 -89.78818 401 ft 36 kts 178°
2026-04-29 23:52 34.97395 -89.78816 401 ft 38 kts 180°
2026-04-29 23:52 34.97153 -89.78812 404 ft 29 kts 180°
2026-04-29 23:52 34.97055 -89.78777 403 ft 8 kts 89°
2026-04-29 23:53 34.97062 -89.78683 401 ft 7 kts 54°
2026-04-29 23:53 34.97073 -89.78677 401 ft 0 kts 356°
2026-04-29 23:54 34.97308 -89.78679 399 ft 84 kts 359°
2026-04-29 23:54 34.98195 -89.78681 608 ft 152 kts
2026-04-29 23:54 34.99245 -89.78681 1664 ft 161 kts
2026-04-29 23:54 35.00337 -89.78458 2725 ft 173 kts 31°
2026-04-29 23:55 35.01028 -89.77229 3725 ft 198 kts 79°
2026-04-29 23:55 35.00717 -89.75517 4644 ft 226 kts 115°
2026-04-29 23:55 34.99655 -89.74065 5429 ft 229 kts 150°
2026-04-29 23:55 34.98178 -89.73437 6456 ft 232 kts 172°
2026-04-29 23:56 34.96525 -89.73313 7474 ft 246 kts 189°
2026-04-29 23:56 34.94829 -89.73779 8465 ft 258 kts 205°
2026-04-29 23:56 34.93206 -89.74841 9458 ft 270 kts 217°
2026-04-29 23:56 34.91626 -89.76131 10452 ft 280 kts 218°
2026-04-29 23:57 34.89911 -89.77540 10685 ft 320 kts 218°
2026-04-29 23:57 34.87944 -89.79141 10981 ft 352 kts 217°
2026-04-29 23:57 34.85865 -89.80818 11711 ft 365 kts 218°
2026-04-29 23:57 34.83728 -89.82534 12607 ft 372 kts 218°
2026-04-29 23:58 34.81566 -89.84264 13504 ft 377 kts 218°
2026-04-29 23:58 34.79360 -89.86023 14400 ft 382 kts 219°
2026-04-29 23:58 34.77132 -89.87794 15300 ft 386 kts 219°
2026-04-29 23:58 34.74851 -89.89603 16161 ft 390 kts 219°
2026-04-29 23:59 34.72584 -89.91395 16989 ft 393 kts 219°
2026-04-29 23:59 34.70287 -89.93208 17727 ft 398 kts 220°
2026-04-29 23:59 34.67915 -89.95075 18496 ft 401 kts 220°
2026-04-29 23:59 34.65584 -89.96905 19312 ft 401 kts 220°
2026-04-30 00:00 34.63219 -89.98759 20087 ft 402 kts 220°
2026-04-30 00:00 34.60857 -90.00608 20780 ft 403 kts 220°
2026-04-30 00:00 34.58504 -90.02447 21484 ft 403 kts 220°
2026-04-30 00:00 34.56137 -90.04295 22112 ft 404 kts 220°
2026-04-30 00:01 34.53741 -90.06165 22660 ft 408 kts 221°
2026-04-30 00:01 34.51339 -90.08037 23208 ft 410 kts 221°
2026-04-30 00:01 34.48939 -90.09907 23657 ft 413 kts 221°
2026-04-30 00:01 34.46497 -90.11808 24169 ft 416 kts 220°
2026-04-30 00:02 34.44049 -90.13708 24703 ft 417 kts 221°
2026-04-30 00:02 34.41585 -90.15622 25157 ft 419 kts 221°
2026-04-30 00:02 34.39139 -90.17519 25633 ft 420 kts 221°
2026-04-30 00:02 34.36646 -90.19450 26150 ft 420 kts 221°
2026-04-30 00:03 34.34190 -90.21349 26720 ft 418 kts 221°
2026-04-30 00:03 34.31742 -90.23238 27325 ft 415 kts 222°
2026-04-30 00:03 34.29320 -90.25105 27884 ft 413 kts 222°
2026-04-30 00:03 34.27026 -90.26872 28354 ft 413 kts 221°
2026-04-30 00:04 34.24586 -90.28750 28985 ft 408 kts 221°
2026-04-30 00:04 34.22185 -90.30597 29482 ft 407 kts 222°
2026-04-30 00:04 34.19816 -90.32420 29928 ft 407 kts 223°
2026-04-30 00:05 34.14905 -90.36208 29974 ft 420 kts 223°
2026-04-30 00:05 34.09882 -90.40074 29976 ft 427 kts 222°
2026-04-30 00:06 34.04763 -90.44016 29971 ft 437 kts 222°
2026-04-30 00:06 33.99564 -90.48010 29974 ft 442 kts 222°
2026-04-30 00:07 33.94335 -90.52010 30106 ft 430 kts 221°
2026-04-30 00:07 33.91815 -90.53921 30707 ft 414 kts 222°
2026-04-30 00:07 33.89426 -90.55736 31415 ft 405 kts 223°
2026-04-30 00:07 33.87038 -90.57549 32154 ft 397 kts 223°
2026-04-30 00:08 33.84716 -90.59323 32891 ft 388 kts 225°
2026-04-30 00:08 33.82675 -90.61314 33629 ft 367 kts 236°
2026-04-30 00:08 33.81107 -90.63636 33889 ft 358 kts 247°
2026-04-30 00:09 33.79460 -90.69284 33887 ft 360 kts 268°
2026-04-30 00:09 33.79701 -90.75343 33855 ft 367 kts 277°
2026-04-30 00:10 33.80171 -90.81542 33947 ft 379 kts 277°
2026-04-30 00:10 33.80521 -90.88002 33962 ft 391 kts 270°
2026-04-30 00:10 33.80103 -90.91272 33965 ft 400 kts 257°
2026-04-30 00:11 33.78798 -90.94311 33964 ft 418 kts 241°
2026-04-30 00:11 33.76651 -90.96784 33983 ft 441 kts 225°
2026-04-30 00:11 33.73806 -90.98467 34013 ft 467 kts 208°
2026-04-30 00:11 33.70559 -90.99159 34114 ft 486 kts 197°
2026-04-30 00:12 33.67178 -90.99764 34147 ft 472 kts 207°
2026-04-30 00:12 33.64240 -91.01259 34092 ft 449 kts 223°
2026-04-30 00:12 33.61791 -91.03512 34066 ft 439 kts 230°
2026-04-30 00:13 33.56638 -91.07639 34208 ft 465 kts 211°
2026-04-30 00:13 33.53399 -91.08525 34476 ft 478 kts 201°
2026-04-30 00:13 33.50093 -91.09105 35050 ft 471 kts 200°
2026-04-30 00:13 33.46959 -91.09701 36320 ft 440 kts 207°
2026-04-30 00:14 33.44233 -91.10925 37295 ft 406 kts 220°
2026-04-30 00:14 33.41693 -91.12444 37846 ft 398 kts 221°
2026-04-30 00:14 33.39201 -91.13926 38247 ft 396 kts 221°
2026-04-30 00:14 33.36747 -91.15398 38782 ft 392 kts 221°
2026-04-30 00:15 33.34316 -91.16820 39275 ft 386 kts 221°
2026-04-30 00:15 33.31905 -91.18219 39823 ft 379 kts 221°
2026-04-30 00:15 33.29485 -91.19643 39922 ft 381 kts 221°
2026-04-30 00:16 33.24695 -91.22554 39950 ft 385 kts 224°
2026-04-30 00:16 33.19920 -91.25752 39951 ft 393 kts 224°
2026-04-30 00:17 33.15084 -91.28969 39951 ft 401 kts 223°
2026-04-30 00:17 33.10124 -91.32252 39969 ft 408 kts 223°
2026-04-30 00:18 33.05086 -91.35574 39934 ft 415 kts 223°
2026-04-30 00:18 32.99965 -91.38940 39944 ft 421 kts 223°
2026-04-30 00:19 32.94817 -91.42313 39948 ft 425 kts 222°
2026-04-30 00:19 32.89567 -91.45744 39954 ft 429 kts 223°
2026-04-30 00:20 32.84296 -91.49180 39944 ft 431 kts 222°
2026-04-30 00:20 32.79011 -91.52619 39935 ft 434 kts 222°
2026-04-30 00:21 32.73693 -91.56075 39946 ft 436 kts 222°
2026-04-30 00:21 32.68333 -91.59551 39947 ft 439 kts 221°
2026-04-30 00:22 32.62926 -91.63054 39951 ft 441 kts 221°
2026-04-30 00:22 32.57481 -91.66575 39953 ft 444 kts 221°
2026-04-30 00:23 32.51999 -91.70118 39936 ft 449 kts 221°
2026-04-30 00:23 32.46440 -91.73704 39921 ft 453 kts 220°
2026-04-30 00:24 32.40863 -91.77295 39955 ft 457 kts 221°
2026-04-30 00:24 32.35257 -91.80897 39966 ft 460 kts 220°
2026-04-30 00:25 32.29599 -91.84521 39927 ft 460 kts 220°
2026-04-30 00:25 32.23938 -91.88148 39926 ft 462 kts 220°
2026-04-30 00:26 32.18273 -91.91770 39918 ft 462 kts 220°
2026-04-30 00:26 32.12530 -91.95439 39944 ft 462 kts 220°
2026-04-30 00:27 32.06882 -91.99036 39933 ft 461 kts 220°
2026-04-30 00:27 32.01213 -92.02651 39939 ft 461 kts 220°
2026-04-30 00:28 31.95543 -92.06256 39937 ft 462 kts 220°
2026-04-30 00:28 31.89876 -92.09860 39938 ft 464 kts 220°
2026-04-30 00:29 31.84155 -92.13486 39930 ft 463 kts 220°
2026-04-30 00:29 31.78474 -92.17085 39935 ft 463 kts 219°
2026-04-30 00:30 31.72756 -92.20705 39925 ft 465 kts 219°
2026-04-30 00:30 31.67019 -92.24332 39927 ft 465 kts 219°
2026-04-30 00:31 31.61280 -92.27951 39916 ft 466 kts 219°
2026-04-30 00:31 31.55583 -92.31535 39929 ft 464 kts 219°
2026-04-30 00:32 31.49883 -92.35121 39918 ft 464 kts 219°
2026-04-30 00:32 31.44154 -92.38720 39935 ft 463 kts 219°
2026-04-30 00:33 31.38422 -92.42319 39935 ft 464 kts 219°
2026-04-30 00:33 31.32669 -92.45926 39938 ft 464 kts 219°
2026-04-30 00:34 31.27209 -92.49828 39794 ft 460 kts 223°
2026-04-30 00:34 31.24516 -92.51891 39345 ft 453 kts 224°
2026-04-30 00:34 31.21942 -92.53910 38947 ft 446 kts 224°
2026-04-30 00:34 31.19351 -92.55952 38489 ft 444 kts 225°
2026-04-30 00:35 31.16778 -92.57978 37894 ft 443 kts 225°
2026-04-30 00:35 31.14223 -92.59985 37306 ft 441 kts 224°
2026-04-30 00:35 31.11636 -92.62006 36687 ft 441 kts 225°
2026-04-30 00:35 31.09091 -92.63995 36096 ft 441 kts 225°
2026-04-30 00:36 31.06528 -92.66009 35514 ft 442 kts 224°
2026-04-30 00:36 31.04120 -92.68220 34883 ft 430 kts 234°
2026-04-30 00:36 31.02111 -92.70773 34258 ft 420 kts 242°
2026-04-30 00:36 31.00423 -92.73578 33628 ft 418 kts 245°
2026-04-30 00:37 30.98773 -92.76408 33100 ft 419 kts 245°
2026-04-30 00:37 30.95519 -92.82065 33001 ft 421 kts 246°
2026-04-30 00:38 30.93037 -92.88232 32912 ft 417 kts 263°
2026-04-30 00:38 30.92328 -92.94901 32807 ft 409 kts 282°
2026-04-30 00:39 30.94099 -93.01173 32668 ft 406 kts 296°
2026-04-30 00:39 30.96483 -93.07143 32622 ft 407 kts 296°
2026-04-30 00:40 30.98890 -93.13126 32583 ft 408 kts 295°
2026-04-30 00:40 31.01360 -93.19186 32383 ft 412 kts 296°
2026-04-30 00:40 31.02573 -93.22208 32090 ft 413 kts 295°
2026-04-30 00:41 31.03790 -93.25214 31911 ft 411 kts 296°
2026-04-30 00:41 31.05222 -93.31652 31943 ft 417 kts 271°
2026-04-30 00:41 31.04603 -93.34966 31952 ft 432 kts 256°
2026-04-30 00:42 31.03370 -93.38236 31928 ft 435 kts 255°
2026-04-30 00:42 31.00734 -93.44652 31931 ft 436 kts 251°
2026-04-30 00:43 30.97958 -93.50939 31908 ft 435 kts 251°
2026-04-30 00:43 30.95230 -93.57275 31917 ft 430 kts 255°
2026-04-30 00:43 30.94463 -93.60589 31878 ft 419 kts 266°
2026-04-30 00:44 30.93957 -93.63940 31898 ft 418 kts 266°
2026-04-30 00:44 30.92943 -93.70654 31906 ft 421 kts 266°
2026-04-30 00:45 30.91926 -93.77428 31901 ft 422 kts 265°
2026-04-30 00:45 30.91042 -93.80708 31932 ft 433 kts 252°
2026-04-30 00:45 30.89272 -93.83669 31948 ft 452 kts 236°
2026-04-30 00:45 30.86845 -93.85999 31947 ft 471 kts 222°
2026-04-30 00:46 30.83980 -93.87914 31911 ft 477 kts 219°
2026-04-30 00:46 30.78136 -93.91664 31902 ft 476 kts 219°
2026-04-30 00:47 30.72327 -93.95406 31901 ft 475 kts 220°
2026-04-30 00:47 30.66807 -93.99634 31897 ft 469 kts 224°
2026-04-30 00:48 30.61386 -94.03892 31902 ft 469 kts 224°
2026-04-30 00:48 30.55938 -94.08150 31615 ft 468 kts 224°
2026-04-30 00:48 30.53220 -94.10255 31373 ft 458 kts 224°
2026-04-30 00:49 30.50606 -94.12279 31140 ft 452 kts 224°
2026-04-30 00:49 30.47984 -94.14307 30896 ft 448 kts 224°
2026-04-30 00:49 30.45402 -94.16303 30488 ft 442 kts 224°
2026-04-30 00:49 30.42859 -94.18261 29926 ft 433 kts 224°
2026-04-30 00:50 30.40356 -94.20184 29365 ft 424 kts 224°
2026-04-30 00:50 30.37884 -94.22080 28775 ft 416 kts 222°
2026-04-30 00:50 30.35493 -94.23908 28152 ft 410 kts 224°
2026-04-30 00:50 30.33094 -94.25751 27535 ft 403 kts 224°
2026-04-30 00:51 30.30788 -94.27518 26965 ft 396 kts 224°
2026-04-30 00:51 30.28458 -94.29306 26375 ft 395 kts 224°
2026-04-30 00:51 30.26169 -94.31062 25813 ft 397 kts 224°
2026-04-30 00:51 30.24079 -94.33065 25188 ft 383 kts 236°
2026-04-30 00:52 30.22648 -94.35590 24475 ft 367 kts 252°
2026-04-30 00:52 30.22048 -94.37432 24079 ft 358 kts 257°